Chattanooga, TN

10:54 AM EDT on March 24, 2017 (GMT -0400)
Lovell

Weather History for KCHA - March, 2011

Change the Weather History Date:

Saturday, March 19, 2011

  Actual Average Record
Temperature  
Mean Temperature 66 °F 53 °F  
Max Temperature 76 °F 65 °F 86 °F (1982)
Min Temperature 56 °F 41 °F 18 °F (1923)
Degree Days  
Heating Degree Days 0 12  
Month to date heating degree days 221 277  
Since 1 July heating degree days 2926 2899  
Cooling Degree Days 1 0  
Month to date cooling degree days 1 0  
Year to date cooling degree days 1 0  
Growing Degree Days 16 (Base 50)    
Moisture  
Dew Point 50 °F    
Average Humidity 61    
Maximum Humidity 84    
Minimum Humidity 37    
Precipitation  
Precipitation 0.00 in 0.16 in 1.73 in (1881)
Month to date precipitation 7.53 3.05  
Year to date precipitation 14.04 12.80  
Snow  
Snow 0.00 in 0.10 in - ()
Month to date snowfall 0.0 0.9  
Since 1 July snowfall 12.6 3.5  
Snow Depth 0.00 in    
Sea Level Pressure  
Sea Level Pressure 30.22 in    
Wind  
Wind Speed 6 mph (NNE)    
Max Wind Speed 16 mph    
Max Gust Speed 20 mph    
Visibility 10 miles    
Events      
T = Trace of Precipitation, MM = Missing Value Source: NWS Daily Summary

Daily Weather History Graph

Daily Weather History Graph

Search for Another Location

Airport or City:

Trip Planner

Search our weather history database for the weather conditions in past years. The results will help you decide how hot, cold, wet, or windy it might be!

Date:

Astronomy

Mar. 19, 2011 Rise Set
Actual Time 7:46 AM EDT 7:51 PM EDT
Civil Twilight 7:20 AM EDT 8:16 PM EDT
Nautical Twilight 6:51 AM EDT 8:46 PM EDT
Astronomical Twilight 6:21 AM EDT 9:16 PM EDT
Moon 8:10 PM EDT (3/19) 7:18 AM EDT (3/19)
Length of Visible Light 12h 55m
Length of Day
12h 05m
Full, 100% of the Moon is Illuminated
Mar 19
Full
Mar 19
Full
Mar 26
Last Quarter
Apr 3
New
Apr 11
First Quarter

Hourly Weather History & Observations

Time (EDT) Temp. Dew Point Humidity Pressure Visibility Wind Dir Wind Speed Gust Speed Precip Events Conditions
12:53 AM 59.0 °F 53.1 °F 81% 30.16 in 10.0 mi Calm Calm - N/A   Mostly Cloudy
1:53 AM 60.1 °F 52.0 °F 75% 30.16 in 10.0 mi Calm Calm - N/A   Partly Cloudy
2:53 AM 59.0 °F 52.0 °F 78% 30.16 in 10.0 mi Calm Calm - N/A   Mostly Cloudy
3:53 AM 59.0 °F 53.1 °F 81% 30.16 in 10.0 mi Calm Calm - N/A   Mostly Cloudy
4:53 AM 57.9 °F 52.0 °F 81% 30.16 in 10.0 mi Calm Calm - N/A   Partly Cloudy
5:53 AM 57.9 °F 52.0 °F 81% 30.17 in 10.0 mi East 3.5 mph - N/A   Partly Cloudy
6:53 AM 57.9 °F 52.0 °F 81% 30.19 in 10.0 mi Calm Calm - N/A   Scattered Clouds
7:53 AM 61.0 °F 55.0 °F 81% 30.22 in 10.0 mi NNE 4.6 mph - N/A   Scattered Clouds
8:53 AM 62.1 °F 55.0 °F 78% 30.25 in 10.0 mi North 9.2 mph - N/A   Mostly Cloudy
9:53 AM 63.0 °F 52.0 °F 67% 30.26 in 10.0 mi NNE 10.4 mph - N/A   Mostly Cloudy
10:53 AM 64.9 °F 51.1 °F 61% 30.27 in 10.0 mi North 10.4 mph - N/A   Mostly Cloudy
11:53 AM 64.9 °F 51.1 °F 61% 30.28 in 10.0 mi North 10.4 mph - N/A   Mostly Cloudy
12:53 PM 68.0 °F 51.1 °F 55% 30.27 in 10.0 mi NNW 8.1 mph - N/A   Scattered Clouds
1:53 PM 73.0 °F 52.0 °F 48% 30.25 in 10.0 mi NE 8.1 mph - N/A   Mostly Cloudy
2:53 PM 73.9 °F 52.0 °F 46% 30.23 in 10.0 mi NNE 9.2 mph - N/A   Mostly Cloudy
3:53 PM 75.9 °F 51.1 °F 42% 30.20 in 10.0 mi NNE 10.4 mph - N/A   Mostly Cloudy
4:53 PM 75.0 °F 50.0 °F 41% 30.19 in 10.0 mi North 9.2 mph - N/A   Scattered Clouds
5:53 PM 75.0 °F 50.0 °F 41% 30.19 in 10.0 mi NE 11.5 mph - N/A   Scattered Clouds
6:53 PM 73.0 °F 48.0 °F 41% 30.21 in 10.0 mi North 12.7 mph - N/A   Scattered Clouds
7:53 PM 70.0 °F 46.9 °F 44% 30.21 in 10.0 mi NNE 9.2 mph - N/A   Scattered Clouds
8:53 PM 68.0 °F 46.0 °F 45% 30.23 in 10.0 mi NNE 5.8 mph - N/A   Scattered Clouds
9:53 PM 64.9 °F 37.9 °F 37% 30.25 in 10.0 mi North 5.8 mph - N/A   Scattered Clouds
10:53 PM 62.1 °F 37.0 °F 39% 30.26 in 10.0 mi North 3.5 mph - N/A   Scattered Clouds
11:53 PM 61.0 °F 36.0 °F 39% 30.27 in 10.0 mi Calm Calm - N/A   Partly Cloudy